Overview Statistics Trail Chart Weather Telemetry Raw packets
 

This is the latest recevied weather packets stored in our database for station/object DF7ER-12. If no packets are shown the sender has not sent any weather packets the latest 10 day(s).

<< 6 7 8 9 10 11 12 >>
Time Temp. Humidity Pressure Rain* Wind** Luminosity Snow
1788633601 18.33° C 84% 1010.5 hPa - - - -
1788633301 18.89° C 84% 1010.4 hPa - - - -
1788633001 18.33° C 84% 1010.3 hPa - - - -
1788632701 18.89° C 83% 1010.3 hPa - - - -
1788632401 18.33° C 84% 1010.1 hPa - - - -
1788632101 18.89° C 83% 1010 hPa - - - -
1788631801 18.89° C 82% 1009.9 hPa - - - -
1788631501 18.33° C 83% 1009.8 hPa - - - -
1788631201 18.89° C 83% 1009.9 hPa - - - -
1788630901 18.89° C 84% 1009.8 hPa - - - -
1788630601 19.44° C 84% 1009.6 hPa - - - -
1788630301 19.44° C 84% 1009.6 hPa - - - -
1788630001 18.89° C 84% 1009.5 hPa - - - -
1788629701 19.44° C 84% 1009.4 hPa - - - -
1788629401 18.89° C 85% 1009.4 hPa - - - -
1788629101 18.89° C 85% 1009.4 hPa - - - -
1788628801 18.89° C 85% 1009.3 hPa - - - -
1788628501 19.44° C 82% 1009.2 hPa - - - -
1788628201 20° C 81% 1009 hPa - - - -
1788627901 20° C 82% 1009 hPa - - - -
1788627601 20° C 81% 1008.9 hPa - - - -
1788627301 20° C 81% 1008.9 hPa - - - -
1788626734 18.89° C 83% 1008.6 hPa - - - -
1788626433 20° C 82% 1008.6 hPa - - - -
1788626133 20° C 83% 1008.6 hPa - - - -

* Rain since midnight (hover to see other rain measurements)
** Current wind speed in m/s (hover to see current wind gust speed)